• In Kazakhstan
  • List of Countries
  • For 7 days
  • Water Temperature
  • Satellite Maps
  • Weather Map
  • News
  • Weather Widgets
  • user-avatar
    Login

    Hourly Weather Jasonville

    Today, 21 September, Thursday

    Time Temperature Precipitation Wind Pressure Humidity
    00:00 +22°C° 0 mm 1 mps 740 mmHg 89%
    01:00 +20°C° 0 mm 0 mps 740 mmHg 90%
    02:00 +20°C° 0 mm 0 mps 740 mmHg 91%
    03:00 +20°C° 0 mm 0 mps 740 mmHg 92%
    04:00 +20°C° 0 mm 0 mps 741 mmHg 92%
    05:00 +20°C° 0 mm 0 mps 741 mmHg 92%
    06:00 +20°C° 0 mm 0 mps 741 mmHg 92%
    07:00 +22°C° 0.2 mm 0 mps 742 mmHg 86%
    08:00 +24°C° 0.2 mm 0 mps 742 mmHg 79%
    09:00 +27°C° 0.2 mm 0 mps 742 mmHg 73%
    10:00 +28°C° 0.3 mm 0 mps 742 mmHg 67%
    11:00 +29°C° 0.3 mm 0 mps 742 mmHg 62%
    12:00 +31°C° 0.3 mm 0 mps 742 mmHg 56%
    13:00 +31°C° 0 mm 0 mps 741 mmHg 56%
    14:00 +30°C° 0 mm 0 mps 741 mmHg 57%
    15:00 +32°C° 0 mm 1 mps 740 mmHg 58%
    16:00 +30°C° 0 mm 1 mps 740 mmHg 63%
    17:00 +28°C° 0 mm 1 mps 740 mmHg 68%
    18:00 +27°C° 0 mm 1 mps 740 mmHg 73%
    19:00 +26°C° 0 mm 1 mps 741 mmHg 76%
    20:00 +25°C° 0 mm 1 mps 741 mmHg 78%
    21:00 +25°C° 0 mm 1 mps 741 mmHg 81%
    22:00 +24°C° 0 mm 1 mps 741 mmHg 82%
    23:00 +23°C° 0 mm 1 mps 741 mmHg 84%

    Tomorrow, 22 September, Friday

    Time Temperature Precipitation Wind Pressure Humidity
    00:00 +23°C° 0 mm 1 mps 741 mmHg 85%
    01:00 +23°C° 0 mm 1 mps 741 mmHg 86%
    02:00 +22°C° 0 mm 1 mps 741 mmHg 87%
    03:00 +22°C° 0 mm 1 mps 741 mmHg 88%
    04:00 +22°C° 0 mm 1 mps 741 mmHg 88%
    05:00 +22°C° 0 mm 1 mps 742 mmHg 88%
    06:00 +22°C° 0 mm 1 mps 742 mmHg 89%
    07:00 +24°C° 0 mm 1 mps 742 mmHg 81%
    08:00 +26°C° 0 mm 1 mps 742 mmHg 74%
    09:00 +28°C° 0 mm 1 mps 743 mmHg 67%
    10:00 +29°C° 0 mm 1 mps 742 mmHg 62%
    11:00 +30°C° 0 mm 1 mps 742 mmHg 57%
    12:00 +32°C° 0 mm 1 mps 742 mmHg 53%
    13:00 +32°C° 0 mm 1 mps 741 mmHg 53%
    14:00 +32°C° 0 mm 1 mps 741 mmHg 52%
    15:00 +32°C° 0 mm 1 mps 740 mmHg 52%
    16:00 +30°C° 0 mm 1 mps 741 mmHg 58%
    17:00 +28°C° 0 mm 1 mps 741 mmHg 63%
    18:00 +27°C° 0 mm 1 mps 741 mmHg 68%
    19:00 +26°C° 0 mm 1 mps 741 mmHg 71%
    20:00 +25°C° 0 mm 1 mps 741 mmHg 73%
    21:00 +24°C° 0 mm 1 mps 741 mmHg 76%
    22:00 +24°C° 0 mm 1 mps 741 mmHg 77%
    23:00 +23°C° 0 mm 1 mps 741 mmHg 77%

    Day after tomorrow, 23 September, Saturday

    Time Temperature Precipitation Wind Pressure Humidity
    00:00 +23°C° 0 mm 1 mps 741 mmHg 78%
    01:00 +22°C° 0 mm 1 mps 741 mmHg 79%
    02:00 +22°C° 0 mm 1 mps 740 mmHg 79%
    03:00 +22°C° 0 mm 1 mps 740 mmHg 79%
    04:00 +21°C° 0 mm 1 mps 741 mmHg 80%
    05:00 +21°C° 0 mm 1 mps 741 mmHg 81%
    06:00 +21°C° 0 mm 1 mps 742 mmHg 82%
    07:00 +23°C° 0 mm 1 mps 742 mmHg 75%
    08:00 +25°C° 0 mm 1 mps 742 mmHg 69%
    09:00 +28°C° 0 mm 1 mps 743 mmHg 63%
    10:00 +29°C° 0 mm 1 mps 743 mmHg 59%
    11:00 +30°C° 0 mm 1 mps 742 mmHg 54%
    12:00 +32°C° 0 mm 1 mps 742 mmHg 50%
    13:00 +32°C° 0 mm 1 mps 742 mmHg 50%
    14:00 +32°C° 0 mm 1 mps 741 mmHg 50%
    15:00 +32°C° 0 mm 1 mps 741 mmHg 49%
    16:00 +30°C° 0 mm 1 mps 741 mmHg 55%
    17:00 +28°C° 0 mm 1 mps 741 mmHg 61%
    18:00 +26°C° 0 mm 1 mps 741 mmHg 67%
    19:00 +25°C° 0 mm 1 mps 741 mmHg 69%
    20:00 +25°C° 0 mm 1 mps 741 mmHg 71%
    21:00 +24°C° 0 mm 1 mps 741 mmHg 73%
    22:00 +23°C° 0 mm 1 mps 741 mmHg 75%
    23:00 +23°C° 0 mm 1 mps 741 mmHg 77%

    24 September, Sunday

    Time Temperature Precipitation Wind Pressure Humidity
    00:00 +22°C° 0 mm 1 mps 741 mmHg 78%
    01:00 +22°C° 0 mm 1 mps 741 mmHg 80%
    02:00 +21°C° 0 mm 1 mps 741 mmHg 81%
    03:00 +21°C° 0 mm 1 mps 741 mmHg 83%
    04:00 +21°C° 0 mm 1 mps 741 mmHg 83%
    05:00 +20°C° 0 mm 1 mps 741 mmHg 84%
    06:00 +20°C° 0 mm 1 mps 741 mmHg 84%
    07:00 +23°C° 0 mm 1 mps 741 mmHg 76%
    08:00 +25°C° 0 mm 1 mps 742 mmHg 68%
    09:00 +28°C° 0 mm 1 mps 742 mmHg 59%
    10:00 +29°C° 0 mm 1 mps 742 mmHg 54%
    11:00 +31°C° 0 mm 1 mps 741 mmHg 50%
    12:00 +32°C° 0 mm 1 mps 741 mmHg 45%
    13:00 +32°C° 0 mm 1 mps 741 mmHg 45%
    14:00 +32°C° 0 mm 1 mps 740 mmHg 44%
    15:00 +32°C° 0 mm 1 mps 740 mmHg 44%
    16:00 +30°C° 0 mm 1 mps 740 mmHg 50%
    17:00 +28°C° 0 mm 1 mps 740 mmHg 56%
    18:00 +25°C° 0 mm 1 mps 740 mmHg 62%
    19:00 +25°C° 0 mm 1 mps 740 mmHg 65%
    20:00 +24°C° 0 mm 1 mps 740 mmHg 67%
    21:00 +23°C° 0 mm 1 mps 740 mmHg 70%
    22:00 +22°C° 0 mm 1 mps 740 mmHg 71%
    23:00 +22°C° 0 mm 1 mps 740 mmHg 72%

    25 September, Monday

    Time Temperature Precipitation Wind Pressure Humidity
    00:00 +21°C° 0 mm 1 mps 740 mmHg 73%
    01:00 +21°C° 0 mm 1 mps 740 mmHg 74%
    02:00 +21°C° 0 mm 1 mps 740 mmHg 74%
    03:00 +20°C° 0 mm 1 mps 740 mmHg 75%
    04:00 +20°C° 0 mm 1 mps 740 mmHg 76%
    05:00 +20°C° 0 mm 1 mps 740 mmHg 77%
    06:00 +20°C° 0 mm 1 mps 741 mmHg 78%
    07:00 +22°C° 0 mm 1 mps 741 mmHg 71%
    08:00 +25°C° 0 mm 1 mps 741 mmHg 64%
    09:00 +27°C° 0 mm 1 mps 742 mmHg 57%
    10:00 +29°C° 0 mm 1 mps 741 mmHg 52%
    11:00 +29°C° 0 mm 0 mps 741 mmHg 48%
    12:00 +31°C° 0 mm 0 mps 741 mmHg 43%
    13:00 +31°C° 0 mm 0 mps 741 mmHg 42%
    14:00 +30°C° 0 mm 0 mps 740 mmHg 42%
    15:00 +30°C° 0 mm 0 mps 740 mmHg 41%
    16:00 +28°C° 0 mm 0 mps 740 mmHg 47%
    17:00 +26°C° 0 mm 0 mps 740 mmHg 53%
    18:00 +23°C° 0 mm 0 mps 740 mmHg 58%
    19:00 +23°C° 0 mm 0 mps 740 mmHg 61%
    20:00 +22°C° 0 mm 0 mps 740 mmHg 64%
    21:00 +21°C° 0 mm 0 mps 740 mmHg 66%
    22:00 +21°C° 0 mm 0 mps 740 mmHg 68%
    23:00 +20°C° 0 mm 0 mps 740 mmHg 69%

    26 September, Tuesday

    Time Temperature Precipitation Wind Pressure Humidity
    00:00 +20°C° 0 mm 0 mps 740 mmHg 71%
    01:00 +20°C° 0 mm 0 mps 740 mmHg 72%
    02:00 +19°C° 0 mm 0 mps 740 mmHg 73%
    03:00 +19°C° 0 mm 0 mps 740 mmHg 75%
    04:00 +19°C° 0 mm 0 mps 740 mmHg 76%
    05:00 +19°C° 0 mm 0 mps 740 mmHg 77%
    06:00 +19°C° 0 mm 0 mps 740 mmHg 79%
    07:00 +21°C° 0 mm 0 mps 740 mmHg 72%
    08:00 +24°C° 0 mm 0 mps 741 mmHg 65%
    09:00 +26°C° 0 mm 0 mps 741 mmHg 58%
    10:00 +28°C° 0 mm 0 mps 741 mmHg 54%
    11:00 +29°C° 0 mm 0 mps 741 mmHg 50%
    12:00 +32°C° 0 mm 1 mps 740 mmHg 46%
    13:00 +32°C° 0 mm 1 mps 740 mmHg 47%
    14:00 +32°C° 0 mm 1 mps 739 mmHg 47%
    15:00 +32°C° 0 mm 1 mps 739 mmHg 48%
    16:00 +30°C° 0 mm 1 mps 739 mmHg 54%
    17:00 +28°C° 0 mm 1 mps 738 mmHg 60%
    18:00 +26°C° 0 mm 1 mps 738 mmHg 67%
    19:00 +25°C° 0 mm 1 mps 738 mmHg 69%
    20:00 +24°C° 0 mm 1 mps 738 mmHg 71%
    21:00 +24°C° 0 mm 1 mps 738 mmHg 74%
    22:00 +21°C° 0 mm 0 mps 738 mmHg 75%
    23:00 +21°C° 0 mm 0 mps 738 mmHg 77%
    Show more